Theta_e
311 312 311 311 311 310 311 312 312 313 313 311 310 310 311 312 313 314 315 317 321 320 321 329 329 335 342 340 341 341 346 347 348 349 349 344 343 341 341 340 341 342 339 338 339
311 311 311 311 311 311 312 313 314 314 314 312 311 310 311 312 314 314 315 319 321 319 320 329 329 333 342 340 338 340 345 346 344 346 346 347 344 342 341 341 343 342 341 340 340
310 311 311 311 311 312 313 315 316 316 315 313 311 310 311 313 320 328 323 319 320 318 318 327 326 336 345 338 339 343 344 343 344 345 344 346 346 340 341 342 342 342 342 341 340
310 310 310 311 312 313 315 315 316 317 317 313 311 310 312 323 331 328 323 327 323 318 319 325 328 340 341 345 346 345 343 342 345 343 345 346 345 340 341 341 340 339 341 342 341
311 310 310 311 314 316 316 316 317 318 317 313 311 312 319 327 328 327 323 325 315 318 323 328 328 342 346 346 345 344 346 345 343 340 344 345 346 344 342 340 341 341 342 343 342
311 309 310 313 316 317 317 318 318 317 315 312 312 316 323 327 327 323 317 315 318 320 327 325 328 342 345 345 345 345 347 345 343 343 345 346 344 345 342 340 342 342 343 344 343
310 309 311 316 317 318 318 319 317 313 313 315 319 324 326 327 325 321 317 320 320 322 323 322 322 326 345 346 345 347 350 347 345 343 344 343 347 346 341 340 343 343 343 344 343
311 310 316 317 318 319 319 319 318 317 319 320 322 331 326 327 326 322 320 320 320 320 321 322 322 331 343 344 341 349 349 350 346 343 345 345 351 345 342 340 342 342 341 341 342
312 312 316 318 319 319 320 320 320 319 319 320 322 325 326 325 324 322 321 321 322 320 321 321 323 342 343 343 345 346 346 349 349 346 345 345 349 344 343 343 341 340 341 341 341
314 311 316 318 319 320 323 324 324 323 322 322 323 323 326 325 324 325 324 324 323 320 320 321 329 331 331 338 343 350 351 349 350 346 347 344 346 344 343 344 343 341 341 341 341
314 313 314 318 320 322 323 324 324 325 323 325 325 325 325 325 325 326 325 320 320 320 318 318 323 331 333 337 339 345 348 344 345 345 347 347 342 345 344 344 345 342 341 341 341
315 314 312 318 320 322 322 323 321 320 322 325 325 325 326 323 323 324 325 320 319 316 316 315 317 319 328 330 334 345 343 341 341 343 345 348 347 344 342 342 343 343 342 341 340
319 314 313 315 318 320 322 322 321 321 322 324 326 326 325 324 323 324 324 320 317 316 316 316 319 323 325 329 343 341 338 340 339 343 347 346 345 348 346 344 343 343 343 342 341
321 317 314 312 317 320 323 322 323 324 318 322 325 326 325 323 323 324 323 321 320 319 316 316 318 320 320 321 341 343 338 339 346 347 347 341 344 343 345 345 343 344 343 343 342
321 321 315 313 316 321 322 322 324 325 327 327 323 325 325 324 324 324 324 322 322 322 321 322 323 323 326 329 334 328 338 340 347 344 344 343 345 340 343 348 345 342 343 344 343
321 321 319 313 314 318 321 323 325 321 328 327 323 323 322 323 323 323 323 323 322 322 321 321 323 323 325 326 325 332 333 324 332 337 341 340 344 342 345 345 343 341 340 343 345
319 321 320 314 313 315 320 324 322 324 325 326 322 321 321 321 322 321 321 320 319 321 321 320 323 322 325 324 321 319 319 321 329 342 342 337 342 341 341 341 340 340 343 340 345
319 321 320 314 314 313 320 320 327 327 328 325 322 321 321 320 321 321 320 319 319 319 318 321 324 324 323 322 321 320 317 321 329 333 334 336 340 338 339 339 341 344 342 343 343
320 322 315 319 315 315 323 321 324 325 326 325 320 321 321 322 322 322 320 319 319 318 321 321 324 325 328 326 320 323 330 325 332 329 332 332 337 336 336 339 340 342 342 342 343
320 320 321 319 315 318 319 319 322 323 324 322 323 322 323 322 323 320 320 321 323 320 319 321 323 322 328 329 329 326 326 329 327 335 337 335 342 338 338 342 340 343 341 340 344
321 319 323 320 316 321 319 318 322 325 324 323 322 320 322 324 323 322 325 325 324 323 321 318 319 324 328 329 329 326 326 326 327 329 334 336 335 335 340 340 338 338 339 341 341
321 317 322 322 320 316 318 320 324 323 325 322 320 318 319 322 325 326 327 325 324 323 324 320 321 329 330 328 328 328 326 323 326 332 332 332 334 337 340 338 337 338 338 338 340
320 320 323 321 321 319 319 323 324 324 325 325 325 321 319 321 324 325 326 325 325 323 321 319 320 328 327 321 325 328 326 322 322 326 333 335 330 336 338 340 339 336 335 334 338
320 319 325 324 323 320 320 322 324 325 327 323 323 321 320 321 320 322 325 324 325 324 323 320 314 322 326 321 323 330 328 324 323 327 328 332 332 336 336 338 338 334 336 342 343
320 320 323 321 323 320 319 321 324 323 323 323 323 324 321 320 322 322 322 322 324 326 319 316 318 318 319 319 321 325 327 327 328 327 330 329 336 334 334 335 336 334 341 342 342
324 324 323 323 323 320 319 321 324 323 324 324 326 326 323 321 320 320 320 320 323 323 322 316 321 321 324 323 322 325 325 326 329 328 333 333 334 332 332 333 336 336 339 340 341
319 318 323 323 321 321 320 324 325 323 323 325 326 326 325 326 325 325 323 322 319 316 316 318 317 318 322 320 322 324 324 323 329 329 332 335 330 332 331 334 336 338 340 339 338
Wind_Speed
11 11 11 12 11 10 9 9 8 8 7 6 4 4 4 4 4 4 4 6 8 8 10 11 8 9 6 5 7 2 4 1 4 1 8 8 8 14 10 24 12 6 18 28 25
12 11 12 11 11 10 10 9 9 9 8 6 4 3 3 3 3 3 4 8 7 6 8 10 9 8 4 4 4 5 3 8 3 7 3 8 9 10 11 17 5 15 16 28 26
13 13 12 11 11 10 9 10 10 9 8 6 4 2 0 1 4 3 2 5 6 6 10 13 7 5 3 4 1 2 5 5 5 5 8 9 10 10 20 8 25 29 30 30 27
15 14 13 11 9 9 10 10 10 9 7 4 3 2 3 4 3 2 4 5 6 8 10 8 7 7 4 3 2 3 4 11 7 3 6 8 5 9 16 7 29 30 32 32 30
17 16 13 10 9 9 10 11 11 9 5 3 3 5 5 2 3 6 3 8 8 10 12 7 8 8 6 8 5 2 2 9 9 5 7 11 7 8 12 15 26 31 33 32 31
19 15 11 9 9 10 12 12 10 7 4 4 6 6 3 2 3 8 1 6 10 11 9 3 6 10 6 4 3 1 5 8 11 4 7 8 9 16 20 29 29 34 34 34 32
20 14 10 9 10 11 13 12 10 8 8 8 6 4 1 2 3 5 7 7 8 7 3 1 3 8 16 6 5 4 7 8 10 13 6 12 6 3 29 31 31 32 31 32 31
19 13 10 9 10 11 12 12 10 7 6 5 5 6 1 3 3 3 5 5 3 2 1 2 7 8 3 14 5 2 3 4 7 11 5 6 3 7 16 23 28 30 29 29 31
19 13 10 8 8 9 11 11 8 6 6 6 7 7 2 3 5 8 5 5 0 3 3 5 1 5 8 5 3 4 4 1 4 17 0 3 3 6 11 7 20 24 29 28 31
19 14 9 6 4 6 10 12 8 10 9 11 7 5 1 4 11 7 5 2 2 3 3 4 3 4 2 3 4 4 4 3 6 7 6 5 6 13 16 17 14 21 24 29 27
19 15 10 6 3 5 9 10 15 4 21 13 13 8 12 5 8 7 8 5 5 2 1 3 4 6 12 8 4 9 4 5 2 3 1 4 10 15 17 17 10 23 23 26 30
21 16 10 7 6 7 11 13 13 12 11 17 12 13 7 7 5 9 8 4 3 3 2 5 5 10 6 6 9 9 4 1 2 2 2 5 7 6 12 8 11 20 21 26 30
22 17 10 9 10 9 7 10 18 16 3 10 5 7 7 12 7 11 11 6 4 3 4 5 6 2 5 4 8 4 7 6 3 4 1 4 5 4 2 7 11 14 19 28 33
22 20 13 8 9 9 6 13 17 11 5 6 3 4 11 9 3 12 16 6 2 6 6 5 6 5 5 5 8 5 13 4 6 4 2 1 3 4 3 3 7 13 16 23 31
22 21 15 8 9 7 6 11 12 5 3 1 4 5 8 9 4 8 14 7 4 4 5 6 4 4 3 4 11 9 14 13 4 4 3 3 3 5 4 5 6 12 18 21 32
25 21 17 11 14 12 9 11 5 5 4 2 7 6 5 5 4 6 8 7 1 1 1 7 5 3 6 1 3 9 8 8 5 3 3 2 4 4 2 4 2 7 25 27 22
26 21 17 13 10 9 8 6 4 3 4 3 6 4 5 5 3 5 4 5 4 3 3 6 3 5 3 2 5 8 7 3 2 1 5 3 3 6 4 4 4 9 19 30 24
28 20 16 11 9 9 5 4 2 4 5 4 2 3 7 7 5 6 3 2 3 4 2 2 6 2 1 5 5 3 6 5 3 3 3 2 4 5 6 5 10 10 4 12 18
30 19 8 3 12 13 8 3 6 5 3 6 7 3 3 5 5 5 8 5 7 8 6 3 3 4 6 3 4 3 4 4 7 3 2 3 5 4 5 7 8 11 14 8 9
32 18 9 2 14 15 5 5 4 4 5 4 2 1 3 3 6 7 7 2 4 9 5 6 4 3 3 4 10 5 5 3 3 3 3 4 4 4 3 3 4 5 11 14 10
22 7 10 9 15 6 4 6 4 5 5 5 3 5 3 2 3 3 5 1 3 3 5 5 4 4 3 3 2 1 2 6 5 4 5 2 5 5 5 4 4 6 10 14 17
15 4 10 11 1 2 3 5 2 5 18 6 4 6 7 5 1 2 3 5 11 8 4 2 5 2 3 2 0 2 4 5 5 3 1 3 5 2 5 11 8 4 11 14 12
21 6 7 6 1 3 6 4 3 4 3 2 5 4 6 6 3 3 3 1 8 5 8 6 3 3 7 6 2 2 3 4 6 3 4 5 5 2 7 15 12 11 3 10 5
8 4 5 8 6 3 4 4 4 8 4 9 6 3 4 3 2 6 4 5 3 3 11 8 4 6 7 6 3 3 4 4 5 4 4 5 4 4 8 8 3 6 1 9 3
4 2 3 4 5 5 3 3 4 7 5 10 6 5 2 3 2 5 2 2 5 10 4 5 4 5 4 5 2 4 5 8 8 5 5 4 7 7 10 4 11 1 2 4 3
5 4 5 6 7 5 3 3 5 4 2 3 2 9 5 0 3 8 7 4 5 2 3 3 3 4 5 4 3 3 3 9 5 5 3 4 6 7 8 10 14 11 6 2 3
4 5 4 4 3 0 2 3 7 8 9 7 9 6 4 4 11 20 12 16 13 9 4 4 6 3 3 2 3 4 3 4 4 5 7 5 8 5 3 7 9 9 7 3 5
Wind_Direction
356 354 352 353 352 352 355 353 356 355 352 342 323 288 271 253 258 260 248 158 147 122 125 138 136 129 134 75 72 65 69 72 286 192 110 100 138 160 136 142 154 188 165 157 165
356 351 348 347 347 349 350 351 353 354 351 346 332 304 273 266 270 273 199 158 164 144 135 159 147 155 75 54 40 55 98 202 202 329 39 307 201 182 136 162 128 136 153 160 169
356 351 346 343 344 348 349 348 347 348 349 347 342 339 33 136 118 84 116 178 169 153 147 159 143 137 81 81 111 137 162 181 324 274 291 290 180 186 145 182 160 156 162 167 174
354 348 344 343 346 350 350 347 344 344 349 353 7 67 104 104 135 93 7 183 184 168 164 152 155 137 131 110 194 140 200 152 194 169 333 0 116 166 161 209 170 163 162 172 176
355 349 346 351 356 358 354 350 348 348 358 19 74 98 101 87 85 7 351 172 173 169 165 145 157 153 173 123 133 259 184 190 138 148 309 313 301 179 218 187 175 167 169 176 182
358 357 359 7 6 2 360 357 357 3 31 73 99 111 63 70 60 359 90 158 164 167 177 171 69 134 119 112 130 163 189 125 153 245 305 310 298 183 192 170 173 173 178 181 188
4 8 16 13 6 5 9 12 22 47 69 84 83 19 329 98 75 34 107 123 134 139 169 226 290 222 149 125 116 167 129 141 176 187 229 215 272 185 159 167 168 173 182 189 192
7 13 14 8 5 8 15 20 25 42 54 42 8 349 251 170 185 154 142 152 151 189 190 47 352 173 183 125 53 86 169 153 218 174 237 188 104 10 154 159 171 175 184 188 196
5 6 2 2 8 6 9 6 355 347 336 329 322 340 298 206 236 164 167 131 171 213 233 310 308 130 126 93 50 20 262 177 164 205 158 145 143 299 239 166 174 182 179 192 195
0 357 351 350 357 1 352 337 314 294 298 311 293 317 263 169 146 143 175 212 284 268 278 150 124 96 57 112 199 163 259 164 206 204 208 165 166 180 188 217 196 185 182 189 192
357 351 337 321 308 336 342 357 360 341 320 268 281 271 291 212 183 185 190 187 204 184 147 38 85 203 201 195 167 179 211 199 92 120 83 201 172 188 175 205 178 198 198 189 194
355 349 330 299 267 295 343 19 22 338 302 306 284 271 241 204 185 202 197 168 147 189 122 18 239 227 224 191 220 195 176 196 95 145 144 181 226 238 178 196 205 193 197 192 181
350 345 330 290 256 281 323 13 351 342 255 299 276 245 225 204 202 204 197 187 158 175 189 170 243 100 191 195 151 194 176 187 177 153 62 103 314 237 210 173 214 226 212 196 191
346 339 328 290 272 263 300 340 348 355 57 281 247 241 210 200 235 218 202 183 138 204 184 224 280 229 237 230 145 177 219 158 144 108 168 67 268 293 259 208 200 227 208 200 199
341 333 327 286 247 254 290 337 346 350 11 186 200 192 200 177 145 199 206 202 187 226 95 257 259 243 306 173 165 215 155 177 106 93 96 1 75 276 331 261 224 220 216 211 201
338 327 317 287 253 245 281 326 337 45 258 276 172 188 142 211 197 150 178 219 232 129 264 242 270 210 210 161 58 100 72 49 55 74 9 244 148 281 230 280 198 205 225 214 196
335 323 307 278 254 228 252 331 46 148 334 244 211 169 193 181 210 151 193 182 159 86 330 330 273 287 157 91 41 74 74 30 13 77 213 161 118 239 247 307 253 257 221 219 212
335 325 307 273 232 209 196 54 202 241 253 308 326 111 181 170 222 177 152 240 186 99 124 103 330 263 203 165 181 53 136 146 207 197 249 147 226 244 180 106 87 105 147 214 208
337 336 325 200 192 173 150 104 213 218 303 342 335 104 223 237 171 146 196 214 194 170 164 167 331 355 60 52 110 174 58 165 102 5 69 252 289 297 151 24 353 119 86 52 236
340 344 33 141 176 162 90 225 231 229 354 10 276 187 0 296 170 156 182 200 166 192 150 204 103 338 348 34 39 114 148 71 16 144 261 293 288 239 56 316 323 49 79 46 6
347 1 9 123 156 154 155 233 267 259 0 14 300 287 224 271 178 224 174 147 167 87 157 131 98 288 25 16 179 46 60 51 110 122 171 220 258 222 174 212 215 139 76 53 14
356 357 18 166 98 50 174 210 273 298 311 251 236 221 223 187 116 149 170 188 158 160 79 48 124 100 194 181 219 120 148 130 121 219 194 150 270 266 208 214 210 224 86 33 15
337 305 18 181 103 305 307 305 287 304 300 274 243 207 259 188 127 173 136 179 145 133 163 185 27 57 349 353 30 206 149 99 108 83 191 141 262 162 264 244 244 263 31 28 297
338 351 343 53 63 80 356 283 303 304 287 335 268 287 196 180 197 188 145 197 176 100 121 104 112 152 185 208 158 162 182 169 120 125 179 225 257 284 259 254 290 54 113 115 189
332 326 17 326 332 348 284 272 312 8 353 341 337 358 357 185 143 163 160 99 36 134 66 102 124 178 219 255 228 218 189 177 200 175 161 245 210 244 236 226 274 329 4 81 138
331 352 348 297 286 330 308 331 3 341 270 288 353 312 328 264 230 199 140 139 182 219 98 15 177 172 188 312 21 274 307 208 194 144 126 144 253 226 245 246 250 246 260 217 246
304 300 297 281 301 324 244 345 319 353 290 268 293 298 266 255 278 275 205 172 165 147 131 116 133 107 239 338 346 342 284 274 173 165 147 184 233 161 217 241 268 280 267 283 277